Date String (YYYY-MM-DD hh:mm:ss) UTC,Instrument flags,Ambient pressure (hPa),Sample flow (lpm),Bypass flow (lpm),Sample temperature (°C),Ambient temperature (°C),ASC tube jacket temperature (°C),LED temperature (°C),Box temperature (°C),Sample RH (%),Span deviation,Mass concentration (μg/m³),Mass concentration (μg/m³),Mass concentration (μg/m³)
DateTimeUTC,F1_M11,P_M11,Q1_M11,Q2_M11,T1_M11,T2_M11,T3_M11,T4_M11,T5_M11,U1_M11,ZSPAN_M11,X0_M11,X2_M11,X1_M11
2022-01-19 05:00:00,,0823.1,4.99,0.00,22.4,21.8,00.0,31.5,24.2,08.8,0000.0,0006.80,0002.83,0002.21
2022-01-19 05:01:00,,0823.1,5.00,0.00,22.4,21.8,00.0,31.5,24.2,08.8,0000.0,0006.05,0002.78,0002.19
2022-01-19 05:02:00,,0823.1,5.00,0.00,22.4,21.8,00.0,31.5,24.2,08.8,0000.0,0005.40,0002.86,0002.19
2022-01-19 05:03:00,,0823.1,5.00,0.00,22.4,21.8,00.0,31.5,24.2,08.7,0000.0,0005.08,0002.85,0002.17
2022-01-19 05:04:00,,0823.1,5.00,0.00,22.4,21.8,00.0,31.5,24.2,08.7,0000.0,0005.14,0002.82,0002.15
2022-01-19 05:05:00,,0823.1,5.01,0.00,22.4,21.7,00.0,31.5,24.1,08.9,0000.0,0005.97,0002.83,0002.15
2022-01-19 05:06:00,,0823.1,4.99,0.00,22.4,21.7,00.0,31.4,24.1,08.9,0000.0,0005.79,0002.81,0002.15
2022-01-19 05:07:00,,0823.1,5.02,0.00,22.4,21.7,00.0,31.4,24.1,08.9,0000.0,0005.86,0002.82,0002.16
2022-01-19 05:08:00,,0823.1,5.00,0.00,22.4,21.7,00.0,31.4,24.1,08.9,0000.0,0005.73,0002.79,0002.14
2022-01-19 05:09:00,,0823.1,4.99,0.00,22.4,21.7,00.0,31.4,24.1,09.0,0000.0,0005.63,0002.79,0002.13
2022-01-19 05:10:00,,0823.1,5.02,0.00,22.4,21.7,00.0,31.4,24.1,09.0,0000.0,0005.40,0002.78,0002.14
2022-01-19 05:11:00,,0823.1,4.99,0.00,22.4,21.7,00.0,31.4,24.1,09.0,0000.0,0005.50,0002.77,0002.14
2022-01-19 05:12:00,,0823.1,5.00,0.00,22.4,21.7,00.0,31.4,24.1,09.0,0000.0,0005.51,0002.74,0002.13
2022-01-19 05:13:00,,0823.1,5.00,0.00,22.3,21.7,00.0,31.4,24.1,08.9,0000.0,0005.37,0002.70,0002.14
2022-01-19 05:14:00,,0823.2,5.01,0.00,22.3,21.7,00.0,31.4,24.1,08.9,0000.0,0005.53,0002.78,0002.16
2022-01-19 05:15:00,,0823.2,4.99,0.00,22.3,21.7,00.0,31.4,24.1,09.0,0000.0,0005.44,0002.80,0002.18
2022-01-19 05:16:00,,0823.2,4.99,0.00,22.3,21.6,00.0,31.4,24.1,09.0,0000.0,0004.57,0002.84,0002.21
2022-01-19 05:17:00,,0823.1,5.02,0.00,22.3,21.6,00.0,31.4,24.0,08.9,0000.0,0004.62,0002.86,0002.20
2022-01-19 05:18:00,,0823.2,4.99,0.00,22.3,21.6,00.0,31.4,24.0,08.9,0000.0,0004.64,0002.87,0002.19
2022-01-19 05:19:00,,0823.2,5.01,0.00,22.3,21.6,00.0,31.4,24.1,09.0,0000.0,0004.78,0002.89,0002.20
2022-01-19 05:20:00,,0823.2,4.99,0.00,22.3,21.6,00.0,31.4,24.0,09.0,0000.0,0004.95,0002.91,0002.21
2022-01-19 05:21:00,,0823.2,5.01,0.00,22.3,21.5,00.0,31.4,24.0,09.0,0000.0,0005.06,0002.95,0002.21
2022-01-19 05:22:00,,0823.2,5.00,0.00,22.3,21.5,00.0,31.4,24.0,09.0,0000.0,0004.93,0002.94,0002.20
2022-01-19 05:23:00,,0823.3,5.01,0.00,22.3,21.5,00.0,31.3,24.0,09.0,0000.0,0005.23,0002.96,0002.22
2022-01-19 05:24:00,,0823.3,4.99,0.00,22.3,21.5,00.0,31.3,24.0,08.9,0000.0,0006.06,0002.91,0002.21
2022-01-19 05:25:00,,0823.3,5.01,0.00,22.3,21.5,00.0,31.3,24.0,09.0,0000.0,0006.66,0002.87,0002.21
2022-01-19 05:26:00,,0823.3,4.99,0.00,22.2,21.5,00.0,31.3,24.0,09.0,0000.0,0006.80,0002.90,0002.21
2022-01-19 05:27:00,,0823.3,4.99,0.00,22.2,21.5,00.0,31.3,24.0,09.0,0000.0,0006.74,0002.85,0002.17
2022-01-19 05:28:00,,0823.4,5.01,0.00,22.2,21.5,00.0,31.3,24.0,09.0,0000.0,0006.57,0002.82,0002.16
2022-01-19 05:29:00,,0823.4,5.00,0.00,22.2,21.5,00.0,31.3,23.9,09.0,0000.0,0006.67,0002.80,0002.16
2022-01-19 05:30:00,,0823.3,5.00,0.00,22.2,21.6,00.0,31.3,23.9,09.0,0000.0,0007.01,0002.88,0002.15
2022-01-19 05:31:00,,0823.3,4.99,0.00,22.3,22.1,00.0,31.3,24.1,09.0,0000.0,0007.03,0002.89,0002.14
2022-01-19 05:32:00,,0823.4,5.01,0.00,22.4,22.8,00.0,31.4,24.4,09.0,0000.0,0007.41,0002.87,0002.13
2022-01-19 05:33:00,,0823.3,5.00,0.00,22.6,23.0,00.0,31.4,24.5,08.9,0000.0,0007.70,0002.90,0002.14
2022-01-19 05:34:00,,0823.4,5.00,0.00,22.6,22.8,00.0,31.4,24.5,08.9,0000.0,0007.94,0002.93,0002.15
2022-01-19 05:35:00,,0823.4,5.01,0.00,22.6,22.6,00.0,31.4,24.5,08.9,0000.0,0007.41,0002.91,0002.16
2022-01-19 05:36:00,,0823.3,4.99,0.00,22.6,22.5,00.0,31.5,24.5,08.9,0000.0,0006.83,0002.88,0002.15
2022-01-19 05:37:00,,0823.3,4.99,0.00,22.6,22.4,00.0,31.5,24.4,08.9,0000.0,0007.40,0002.83,0002.16
2022-01-19 05:38:00,,0823.3,5.02,0.00,22.6,22.3,00.0,31.5,24.4,08.9,0000.0,0007.55,0002.79,0002.16
2022-01-19 05:39:00,,0823.3,4.99,0.00,22.6,22.2,00.0,31.5,24.4,08.9,0000.0,0008.03,0002.84,0002.16
2022-01-19 05:40:00,,0823.3,5.01,0.00,22.5,22.1,00.0,31.5,24.3,08.9,0000.0,0007.98,0002.83,0002.15
2022-01-19 05:41:00,,0823.3,5.00,0.00,22.5,22.0,00.0,31.5,24.3,08.9,0000.0,0007.83,0002.76,0002.14
2022-01-19 05:42:00,,0823.3,5.01,0.00,22.5,22.0,00.0,31.5,24.3,08.9,0000.0,0007.78,0002.73,0002.13
2022-01-19 05:43:00,,0823.3,4.99,0.00,22.5,21.9,00.0,31.5,24.3,08.9,0000.0,0007.52,0002.72,0002.11
2022-01-19 05:44:00,,0823.3,5.02,0.00,22.5,21.9,00.0,31.5,24.3,08.9,0000.0,0007.42,0002.69,0002.09
2022-01-19 05:45:00,,0823.3,4.99,0.00,22.5,21.9,00.0,31.5,24.3,09.0,0000.0,0006.74,0002.71,0002.08
2022-01-19 05:46:00,,0823.4,5.01,0.00,22.5,21.9,00.0,31.5,24.3,09.0,0000.0,0006.71,0002.71,0002.05
2022-01-19 05:47:00,,0823.3,4.99,0.00,22.5,21.8,00.0,31.5,24.2,08.9,0000.0,0006.79,0002.71,0002.02
2022-01-19 05:48:00,,0823.3,5.02,0.00,22.5,21.8,00.0,31.5,24.2,08.9,0000.0,0006.20,0002.70,0002.00
2022-01-19 05:49:00,,0823.3,4.99,0.00,22.5,21.8,00.0,31.5,24.2,08.9,0000.0,0005.86,0002.71,0001.98
2022-01-19 05:50:00,,0823.3,5.00,0.00,22.4,21.8,00.0,31.5,24.2,08.9,0000.0,0004.94,0002.72,0001.95
2022-01-19 05:51:00,,0823.3,5.00,0.00,22.4,21.8,00.0,31.5,24.2,08.8,0000.0,0004.72,0002.66,0001.92
2022-01-19 05:52:00,,0823.3,5.00,0.00,22.4,21.8,00.0,31.5,24.2,08.8,0000.0,0004.58,0002.65,0001.92
2022-01-19 05:53:00,,0823.4,5.00,0.00,22.4,21.8,00.0,31.5,24.2,08.8,0000.0,0004.61,0002.62,0001.89
2022-01-19 05:54:00,,0823.4,4.99,0.00,22.4,21.8,00.0,31.5,24.2,08.8,0000.0,0004.59,0002.58,0001.86
2022-01-19 05:55:00,,0823.4,4.99,0.00,22.4,21.8,00.0,31.5,24.2,08.8,0000.0,0004.57,0002.56,0001.83
2022-01-19 05:56:00,,0823.5,5.01,0.00,22.4,21.8,00.0,31.5,24.1,08.9,0000.0,0004.15,0002.45,0001.80
2022-01-19 05:57:00,,0823.5,4.99,0.00,22.4,21.7,00.0,31.4,24.1,08.9,0000.0,0004.03,0002.38,0001.77
2022-01-19 05:58:00,,0823.6,5.01,0.00,22.4,21.7,00.0,31.4,24.2,09.0,0000.0,0004.12,0002.36,0001.75
2022-01-19 05:59:00,,0823.6,4.98,0.00,22.4,21.7,00.0,31.4,24.2,09.0,0000.0,0004.11,0002.35,0001.74
